Content
SEND FEEDBACK

Daily
Averages
Monthly
Summary
United States of America

NEW LONDON, WISCONSIN


Home > North America > United States > Wisconsin
Elevation: 767 feet     Latitude: 44 22N     Longitude: 088 43W

WEATHER
 
SELECT A DAY
Number of Records: 230,711;   Date Range: 1/1/95 - 7/28/14
 
SHARE

PRINT THIS DATA

[ ← Previous Day ]
WEATHER ALMANAC - JANUARY 31, 2013
[ Next Day → ]
[ °C ]   °F
Weather ElementAverageHighLow
Temperature9.8 °F15.8 °F (12:35 am)1.4 °F (10:45 pm)
Dewpoint3.7 °F10.4 °F (12:35 am)-4 °F (10:35 pm)
Humidity76.3 %86 % (1:55 am)67 % (9:45 am)
Barometer29.75 in30.04 in (11:35 pm)29.53 in (12:35 am)
Wind Speed16.7 mph20.7 mph (6:45 pm)
Wind Gust26.5 mph (5:15 am)
Weather ElementAverage
Visibility9.3 mi
Wind DirectionWNW (280 °)

Weather ElementTotal
Precipitation---
Heating Degree Days56.4 (Base 65)
Averaged from 34 records on January 31, 2013
WEATHER CONDITIONS BREAKOUT
WIND DIRECTION BREAKOUT
WEATHER BY HOUR - JANUARY 31, 2013
[ °C ]   °F
Local TimeTemperatureDewpointHumidityBarometerVisibilityWind DirectionWind SpeedGust SpeedPrecipitationEventsConditions
12:35 AM15.8 °F10.4 °F79 %29.53 in10.0 miWest (280°)16.1 mphOvercast
12:55 AM15.8 °F10.4 °F79 %29.54 in10.0 miWest (280°)16.1 mphOvercast
1:15 AM15.8 °F10.4 °F79 %29.54 in10.0 miWest (280°)13.8 mphOvercast
1:35 AM15.8 °F10.4 °F79 %29.55 in10.0 miWest (270°)15.0 mphOvercast
1:55 AM14.0 °F10.4 °F86 %29.56 in10.0 miWest (270°)19.6 mph24.2 mphOvercast
2:15 AM14.0 °F10.4 °F86 %29.57 in10.0 miWest (270°)18.4 mph21.9 mphOvercast
2:35 AM14.0 °F10.4 °F86 %29.57 in10.0 miWest (270°)17.3 mphOvercast
2:55 AM14.0 °F8.6 °F79 %29.58 in10.0 miWest (280°)19.6 mph23.0 mphOvercast
3:15 AM14.0 °F8.6 °F79 %29.58 in7.0 miWest (280°)18.4 mphOvercast
3:35 AM12.2 °F8.6 °F85 %29.58 in5.0 miWest (270°)17.3 mph24.2 mphOvercast
3:55 AM12.2 °F8.6 °F85 %29.59 in7.0 miWest (280°)17.3 mphOvercast
4:15 AM12.2 °F6.8 °F79 %29.60 in10.0 miWNW (290°)17.3 mph24.2 mphOvercast
5:15 AM10.4 °F5.0 °F79 %29.61 in10.0 miWNW (290°)18.4 mph26.5 mphOvercast
6:45 AM10.4 °F3.2 °F73 %29.64 in10.0 miWest (280°)15.0 mphOvercast
7:45 AM10.4 °F3.2 °F73 %29.68 in10.0 miWest (280°)17.3 mphOvercast
8:45 AM10.4 °F3.2 °F73 %29.70 in10.0 miWNW (290°)18.4 mphOvercast
9:45 AM10.4 °F1.4 °F67 %29.73 in10.0 miWNW (290°)17.3 mph24.2 mphMostly Cloudy
11:10 AM10.4 °F3.2 °F73 %29.75 in10.0 miWNW (290°)16.1 mphMostly Cloudy
11:45 AM12.2 °F3.2 °F67 %29.76 in10.0 miWNW (290°)13.8 mphMostly Cloudy
12:45 PM12.2 °F3.2 °F67 %29.77 in10.0 miWest (280°)17.3 mphScattered Clouds
1:03 PM12.2 °F3.2 °F67 %29.77 in4.0 miWest (280°)17.3 mph24.2 mphHaze
1:45 PM12.2 °F3.2 °F67 %29.78 in7.0 miWest (270°)16.1 mphMostly Cloudy
2:45 PM10.4 °F3.2 °F73 %29.80 in10.0 miWest (280°)19.6 mphMostly Cloudy
4:45 PM8.6 °F3.2 °F79 %29.86 in7.0 miWest (270°)19.6 mphMostly Cloudy
5:45 PM6.8 °F-0.4 °F72 %29.90 in10.0 miWest (280°)16.1 mph23.0 mphMostly Cloudy
6:45 PM6.8 °F-0.4 °F72 %29.93 in10.0 miWest (280°)20.7 mph25.3 mphMostly Cloudy
7:45 PM5.0 °F-0.4 °F78 %29.96 in10.0 miWNW (290°)17.3 mph24.2 mphMostly Cloudy
10:15 PM3.2 °F-2.2 °F78 %30.02 in10.0 miWest (280°)16.1 mph21.9 mphClear
10:35 PM3.2 °F-4.0 °F72 %30.02 in10.0 miWest (280°)13.8 mphClear
10:45 PM1.4 °F-4.0 °F78 %30.02 in10.0 miWest (280°)15.0 mphScattered Clouds
10:55 PM3.2 °F-4.0 °F72 %30.02 in10.0 miWest (280°)15.0 mphClear
11:15 PM1.4 °F-4.0 °F78 %30.03 in10.0 miWest (280°)13.8 mphClear
11:35 PM1.4 °F-4.0 °F78 %30.04 in10.0 miWest (280°)12.7 mphClear
11:55 PM1.4 °F-4.0 °F78 %30.04 in10.0 miWest (280°)13.8 mphClear
Hourly data recorded from KATW, located miles away from New London, Wisconsin







STORIES FROM OUR PARTNERS